This demonstration page uses our WeatherBlox Daily Observations layout. Learn more.

41.55636, -103.73856

Hourly Observations for April 26, 2015

Temp ( °F °C ) Dew Point ( °F °C ) Humidity (%) Winds ( mph kmh ) Pressure ( in mb ) Visibility ( mi km ) Precip ( " mm )
12:00 am 00:00 Cloudy with Light Rain 52 11 46 8 82 82 SE 10 17 29.77 1008 10 16.0934 0 0
12:53 am 00:53 Cloudy with Light Rain 50 10 47 8.3 89 89 ESE 14 22 29.74 1007 10 16.0934 0.03 0.762
1:53 am 01:53 Cloudy with Light Rain 48 9 N/A N/A E 15 24 29.68 1005 10 16.0934 0 0.0254
2:29 am 02:29 Cloudy with Light Rain 48 9 N/A N/A SE 18 30 29.77 1008 10 16.0934 0 0.0254
2:38 am 02:38 Cloudy with Light Rain 48 9 N/A N/A SE 16 26 29.77 1008 10 16.0934 0 0
2:53 am 02:53 Cloudy 48 9 N/A N/A S 12 19 29.71 1006 10 16.0934 0 0.0254
3:53 am 03:53 Cloudy 49 9.4 49 9.4 100 100 E 10 17 29.73 1007 10 16.0934 0 0.0254
4:53 am 04:53 Cloudy with Light Rain 48 8.9 48 8.9 100 100 E 9 15 29.74 1007 10 16.0934 0.01 0.254
5:48 am 05:48 Cloudy with Light Rain 48 9 48 9 100 100 E 15 24 29.8 1009 9 14.48406 0 0
5:53 am 05:53 Cloudy with Light Rain 48 8.9 48 8.9 100 100 E 14 22 29.78 1008 10 16.0934 0.04 1.016
6:53 am 06:53 Cloudy with Light Rain 47 8.3 47 8.3 100 100 undefined N/A 29.8 1009 6 9.65604 0.01 0.254
7:53 am 07:53 Cloudy with Light Rain 46 8 N/A N/A ESE 16 26 29.83 1010 6 9.65604 0.04 1.016
8:18 am 08:18 Cloudy with Rain 46 8 N/A N/A ESE 17 28 29.88 1012 4 6.43736 0 0
8:53 am 08:53 Cloudy with Rain 46 8 N/A N/A ESE 18 30 29.86 1011 3 4.82802 0.12 3.048
9:04 am 09:04 Cloudy with Rain 46 8 N/A N/A ESE 16 26 29.91 1013 2.5 4.02335 0 0
9:34 am 09:34 Cloudy with Light Rain 46 8 N/A N/A ESE 21 33 29.91 1013 4 6.43736 0 0
9:53 am 09:53 Cloudy with Light Rain 45 7 N/A N/A ESE 15 24 29.88 1012 2.5 4.02335 0.12 3.048
10:03 am 10:03 Cloudy with Light Rain 45 7 N/A N/A ESE 13 20 29.94 1014 0.75 1.207005 0 0
10:21 am 10:21 Cloudy with Rain 45 7 N/A N/A SE 16 26 29.94 1014 1.25 2.011675 0.02 0.508
10:43 am 10:43 Cloudy with Light Rain 45 7 N/A N/A ESE 17 28 29.94 1014 2.5 4.02335 0.09 2.286
10:53 am 10:53 Cloudy with Light Rain 45 7 N/A N/A ESE 14 22 29.92 1013 2.5 4.02335 0.1 2.54
11:15 am 11:15 Cloudy with Light Rain 45 7 N/A N/A ESE 15 24 29.94 1014 3 4.82802 0.01 0.254
11:32 am 11:32 Cloudy with Light Rain 45 7 N/A N/A SE 14 22 29.94 1014 4 6.43736 0 0
11:53 am 11:53 Cloudy with Light Rain 45 7 N/A N/A ESE 15 24 29.93 1014 3 4.82802 0.03 0.762
12:53 pm 12:53 Cloudy with Light Rain 46 8 N/A N/A E 16 26 29.93 1013 5 8.0467 0.04 1.016
1:53 pm 13:53 Cloudy with Haze 45 7 N/A N/A ESE 16 26 29.95 1014 5 8.0467 0 0.0254
2:53 pm 14:53 Cloudy 46 8 N/A N/A ESE 13 20 29.95 1014 10 16.0934 0 0.0254
3:53 pm 15:53 Cloudy 46 8 N/A N/A E 15 24 29.96 1014 10 16.0934 0 0
4:00 pm 16:00 Cloudy 46 8 N/A N/A E 14 22 29.94 1014 8 12.87472 0 0
4:22 pm 16:22 Cloudy 46 8 N/A N/A ESE 10 17 29.97 1015 8 12.87472 0 0
4:30 pm 16:30 Cloudy 46 8 N/A N/A ESE 10 17 29.97 1015 9 14.48406 0 0
4:45 pm 16:45 Cloudy 46 8 N/A N/A SE 8 13 29.97 1015 10 16.0934 0 0
4:53 pm 16:53 Cloudy 46 8 N/A N/A ESE 13 20 29.97 1015 9 14.48406 0 0
5:41 pm 17:41 Cloudy 46 8 N/A N/A ESE 14 22 29.97 1015 8 12.87472 0 0
5:53 pm 17:53 Cloudy 46 8 N/A N/A ESE 14 22 30 1016 9 14.48406 0 0
6:06 pm 18:06 Cloudy 46 8 N/A N/A ESE 14 22 29.97 1015 8 12.87472 0 0
6:53 pm 18:53 Cloudy 46 8 N/A N/A ESE 12 19 30.01 1016 8 12.87472 0 0
7:53 pm 19:53 Cloudy 45 7 N/A N/A ESE 12 19 30.05 1018 8 12.87472 0 0
8:46 pm 20:46 Cloudy 45 7 N/A N/A ESE 10 17 30.09 1019 9 14.48406 0 0
8:53 pm 20:53 Cloudy 45 7 N/A N/A ESE 10 17 30.09 1019 9 14.48406 0 0
9:53 pm 21:53 Cloudy 45 7 N/A N/A ESE 5 7 30.12 1020 8 12.87472 0 0
10:53 pm 22:53 Cloudy 45 7 N/A N/A ESE 3 6 30.13 1020 8 12.87472 0 0
11:53 pm 23:53 Cloudy 45 7 N/A N/A ESE 5 7 30.15 1021 8 12.87472 0 0

Powered by AerisWeather